Regional Weather Roundup
Issued by NWS

Home | Current Version | Previous Version | Graphics & Text | Print | Product List | Glossary On
Versions: 1 2 3 4 5 6 7 8 9 10 11 12 13 14 15 16 17 18 19 20 21 22 23 24 25 26 27 28 29 30 31 32 33 34 35 36 37 38 39 40 41 42 43 44 45 46 47 48 49 50
000
ASUS45 KSLC 250610
RWRUT

UTAH REGIONAL WEATHER ROUNDUP
NATIONAL WEATHER SERVICE SALT LAKE CITY UT
1200 AM MDT TUE APR 25 2017

UTZ001>011-023>025-250700-

NORTHERN UTAH

CITY           SKY/WX    TMP DP  RH WIND       PRES   REMARKS
BRIGHAM CITY   CLOUDY    44  38  80 CALM      29.75S
HILL AFB       CLOUDY    41  37  86 S12       29.75S
LOGAN          CLOUDY    43  41  93 CALM      29.74R
OGDEN          CLOUDY    43  37  79 S12       29.74S
SALT LAKE CITY CLOUDY    44  42  93 SE6       29.76F
TOOELE VALLEY  MOCLDY    37  36  93 S7        29.77F WCI  32
WENDOVER       MOCLDY    44  33  65 W5        29.78S
HEBER CITY     MIX PCPN  37  34  87 W7        29.77R WCI  32
WEST JORDAN    CLOUDY    44  44 100 E5        29.77F

$$

UTZ011>015-024>027-250700-

CENTRAL/NORTHEAST UTAH

CITY           SKY/WX    TMP DP  RH WIND       PRES   REMARKS
PROVO AIRPORT  LGT RAIN  41  37  86 N20G25    29.78R
MOAB/CANYONLAN CLOUDY    53  31  42 W10       29.67R
DELTA          CLOUDY    45  30  57 N10       29.78R
PRICE          CLEAR     38  30  73 W3        29.71F
RICHFIELD      PTCLDY    45  37  76 N2        29.80F
ROOSEVELT      CLEAR     43  28  56 W16       29.69S
VERNAL         CLEAR     42  27  55 W6        29.67S

$$

UTZ013>016-019>022-027-250700-

SOUTHERN UTAH

CITY           SKY/WX    TMP DP  RH WIND       PRES   REMARKS
BRYCE CANYON   CLOUDY    38  24  57 NE8       29.79R WCI  32
CEDAR CITY     CLOUDY    46  31  55 N8        29.76R
MILFORD        CLOUDY    47  35  63 N9        29.76R
ST GEORGE      CLOUDY    69  18  14 W5        29.64S
HANKSVILLE     MOCLDY    52  32  46 NW8       29.73R
KANAB          CLEAR     54  30  40 S6        29.74F
BLANDING       CLOUDY    54  30  40 NW14G21   29.74R

$$

REGIONAL REPORTS     COLORADO/ARIZONA

CITY           SKY/WX    TMP DP  RH WIND       PRES   REMARKS
CRAIG, CO      LGT SNOW  34  31  88 SW8       29.72R FOG     WCI  27
GRAND JUNCTION CLOUDY    48  38  68 W3        29.71R
RIFLE, CO      LGT RAIN  43  37  79 W13       29.75R
MONTROSE, CO   CLOUDY    49  33  54 NW25G38   29.69R
CORTEZ, CO     CLOUDY    46  34  62 NE6       29.68F
COLORADO CITY    N/A     57  28  33 W8        29.74F
PAGE, AZ       CLOUDY    68  25  19 VRB7G18   29.62F
GRAND CANYON   MOCLDY    50  27  40 SW8       29.80F
KINGMAN, AZ    MOCLDY    56  32  40 S8        29.70S
FLAGSTAFF, AZ  MOCLDY    50  27  40 SW10      29.83F

$$

REGIONAL REPORTS    NEVADA/IDAHO/WYOMING

CITY           SKY/WX    TMP DP  RH WIND       PRES   REMARKS
LAS VEGAS, NV  CLOUDY    71  30  21 S9        29.60S
ELY, NY        MOCLDY    37  27  67 NW7       29.84S WCI  32
ELKO, NV       CLOUDY    40  35  83 W6        29.82S
POCATELLO, ID  CLOUDY    41  37  86 SW20      29.72S
BURLEY, ID     CLOUDY    42  35  76 W15       29.73R
FORT BRIDGER,    N/A     32  32 100 W13       29.74S WCI  23
EVANSTON, WY   CLOUDY    32  32 100 SW10      29.74F WCI  24
ROCK SPRINGS,  CLOUDY    35  31  85 W10       29.68R WCI  27
KEMMERER, WY     N/A     30  28  93 W8        29.70F WCI  23

$$



USA.gov is the U.S. government's official web portal to all federal, state and local government web resources and services.